Weather in Nikifarovo

Russia / Republic of Bashkortostan     53°49′34″N   54°41′56″E
temp.,
°C
wind,
m/s
gust,
m/s
humid.,
%
clouds,
%
prec.,
mm/h
press.,
hPa
HPBL,
m
21 january, thu
thu2123:00−23sw4997100 0.1 1020234
02:00−23sw4897100 0.1 1020243
05:00−23sw4897100 0.2 1020225
08:00−23sw5997100 0.1 1020235
11:00−22sw5119699 0.1 1021261
14:00−19sw61095100 0.1 1021308
17:00−19sw61095100 0.1 1020321
20:00−18sw61195100 0.1 1020328
22 january, fri
fri2223:00−18wsw61094100 0.1 1019325
02:00−17sw4996100 0.1 1019285
05:00−16sw4995100 0.4 1019265
08:00−16sw4895100 0.1 1019234
11:00−14sw489499 0.3 1019278
14:00−12wsw4693100 0.1 1019398
17:00−13wsw3695100 0.3 1020231
20:00−15w2296100 0.2 102231
23 january, sat
sat2323:00−19n129997 0.2 102420
02:00−22ne1110092 0.0 102720
05:00−24e1110095 0.1 102820
08:00−23se119979 0.0 103020
11:00−19s259488 0.0 1031151
14:00−14s51091100 0.0 1030385
17:00−14s71294100 0.6 1029398
20:00−14ssw71494100 0.9 1028433
24 january, sun
sun2423:00−13ssw71493100 1.3 1027395
02:00−11ssw71493100 0.3 1027358
05:00−8ssw61194100 0.6 1026330
08:00−4ssw51096100 0.6 1025324
11:00+1sw611100100 1.1 1026380
14:000sw71298100 0.2 1026425
17:00−1sw71296100 0.4 1026467
20:00−3sw7129499 0.3 1028425
25 january, mon
mon2523:00−2sw7139599 0.5 1029495
02:00−2sw71394100 0.3 1029441
05:00−2wsw71297100 0.3 1030470
08:00−1wsw61195100 0.0 1030582
11:00−1sw5995100 0.0 1032575
14:00−1sw6993100 0.0 1032671
17:00−2sw5892100 0.1 1032498
20:00−4ssw4995100 0.0 1032300